Kosmos-894

operational
NORAD ID: 9846 Int'l Des: 1977-013 Owner: VMF Country: SU
LEOCIRCULARPOLAR

About Kosmos-894

Description loading...

Live Position

Loading 3D Globe...

Upcoming Passes

Altitude History

Altitude vs Time

uPlot chart will show altitude changes over time

Two-Line Element Set

1 9846U 77013A 25277.48604684 .00000107 00000-0 97582-4 0 9991
2 9846 82.9391 286.3040 0029412 198.6995 272.2739 13.74178430437058
Epoch: Oct 4, 2025 • Age: 12 hours

Current Status

Altitude 987.9 km
Velocity 7.37 km/s
Sub-Earth Point 56.07°N, 82.06°E
Type other

Large Constellations

Loading constellations...